Location: Newark
(44.3681°N, 100.3364°W)
Time: 21:27:19
(UTC+00:00)

deb Explorer IX - Pass Details

Date: 20 February 2020
Orbit: 547 x 1100 km, 38.8° (Epoch: 05 April)

Event Time Altitude Azimuth Distance (km) Brightness Sun altitude
Rises 23:55:56 0° 262° (W) 2,834 ? 2.5°
Reaches altitude 10° 00:00:01 10° 224° (SW) 2,038 ? 1.8°
Maximum altitude 00:01:10 11° 210° (SSW) 2,017 ? 1.6°
Drops below altitude 10° 00:02:22 10° 196° (SSW) 2,109 ? 1.4°
Sets 00:06:56 0° 160° (SSE) 3,186 ? 0.6°
